TimeMST,TemperatureF,Dew PointF,Humidity,Sea Level PressureIn,VisibilityMPH,Wind Direction,Wind SpeedMPH,Gust SpeedMPH,PrecipitationIn,Events,Conditions,WindDirDegrees,DateUTC
12:53 AM,35.1,27.0,72,30.04,10.0,North,6.9,-,N/A,,Mostly Cloudy,10,2012-11-19 07:53:00
1:53 AM,37.0,27.0,67,30.05,10.0,NNW,3.5,-,N/A,,Clear,330,2012-11-19 08:53:00
2:53 AM,32.0,26.1,79,30.09,10.0,SSE,3.5,-,N/A,,Scattered Clouds,160,2012-11-19 09:53:00
3:53 AM,33.1,26.1,75,30.09,10.0,SSE,6.9,-,N/A,,Partly Cloudy,150,2012-11-19 10:53:00
4:53 AM,33.1,26.1,75,30.10,10.0,Variable,4.6,-,N/A,,Clear,0,2012-11-19 11:53:00
5:53 AM,32.0,24.1,73,30.11,10.0,Variable,5.8,-,N/A,,Clear,0,2012-11-19 12:53:00
6:53 AM,30.9,24.1,76,30.16,10.0,West,3.5,-,N/A,,Clear,270,2012-11-19 13:53:00
7:53 AM,34.0,25.0,70,30.16,10.0,WSW,6.9,-,N/A,,Scattered Clouds,250,2012-11-19 14:53:00
8:53 AM,35.1,28.0,76,30.19,10.0,Calm,Calm,-,N/A,,Clear,0,2012-11-19 15:53:00
9:53 AM,39.0,28.9,67,30.18,10.0,Calm,Calm,-,N/A,,Clear,0,2012-11-19 16:53:00
10:53 AM,45.0,27.0,49,30.16,10.0,Calm,Calm,-,N/A,,Clear,0,2012-11-19 17:53:00
11:53 AM,48.9,28.0,44,30.12,10.0,ENE,6.9,-,N/A,,Clear,60,2012-11-19 18:53:00
12:53 PM,48.0,28.9,48,30.10,10.0,North,5.8,-,N/A,,Clear,350,2012-11-19 19:53:00
1:53 PM,48.0,28.9,48,30.09,10.0,East,4.6,-,N/A,,Clear,80,2012-11-19 20:53:00
2:53 PM,46.9,28.0,48,30.12,10.0,Calm,Calm,-,N/A,,Clear,0,2012-11-19 21:53:00
3:53 PM,46.0,28.9,51,30.13,10.0,Calm,Calm,-,N/A,,Clear,0,2012-11-19 22:53:00
4:53 PM,44.1,27.0,51,30.13,10.0,SSE,11.5,-,N/A,,Clear,160,2012-11-19 23:53:00
5:53 PM,39.9,27.0,60,30.16,10.0,West,5.8,-,N/A,,Clear,270,2012-11-20 00:53:00
6:53 PM,37.9,26.1,62,30.17,10.0,West,4.6,-,N/A,,Clear,280,2012-11-20 01:53:00
7:53 PM,41.0,25.0,53,30.15,10.0,WSW,8.1,-,N/A,,Clear,240,2012-11-20 02:53:00
8:53 PM,36.0,26.1,67,30.17,10.0,NW,4.6,-,N/A,,Clear,320,2012-11-20 03:53:00
9:53 PM,35.1,26.1,70,30.16,10.0,North,5.8,-,N/A,,Clear,350,2012-11-20 04:53:00
10:53 PM,36.0,26.1,67,30.13,10.0,WSW,9.2,-,N/A,,Clear,240,2012-11-20 05:53:00
11:53 PM,35.1,25.0,67,30.12,10.0,Calm,Calm,-,N/A,,Clear,0,2012-11-20 06:53:00